Theta_e
334 335 336 335 336 336 334 334 335 336 337 337 338 339 339 338 335 335 337 338 338 337 337 337 337 337 337 338 337 336 336 336 336 335 335 336 337 336 335 334 334 334 333 331 329 330 330 328 328 331 333 332 331 332 333 334 333 332 332 331 331 331 330 330 330 329 329 330 330 331 330 330 331 332 331 331 330 330 330 330 330 329 329 327 327
335 335 335 335 335 335 334 334 336 336 337 338 339 339 339 338 337 337 338 338 338 337 337 337 337 336 337 337 336 335 336 335 335 335 335 336 336 336 335 334 334 334 334 332 330 331 329 328 331 333 332 332 331 332 333 333 332 332 332 331 330 330 330 330 330 330 330 330 330 330 329 328 329 330 330 330 330 330 330 330 329 329 329 328 328
337 336 334 334 334 334 334 335 337 336 338 339 339 339 339 339 338 338 338 338 338 338 338 338 337 336 336 336 336 335 334 334 334 335 335 335 335 336 335 335 334 333 333 332 329 331 331 330 333 333 332 332 332 332 333 332 332 332 332 332 330 330 330 330 330 330 330 330 330 330 330 329 329 329 329 329 329 330 331 331 330 330 330 330 330
337 337 334 333 333 334 334 335 337 337 337 338 337 339 340 339 339 339 338 337 338 338 338 338 337 336 335 335 334 334 333 333 334 333 334 335 335 336 335 334 334 332 332 331 329 330 332 332 332 332 332 332 332 333 333 332 332 331 331 332 331 330 330 330 331 331 330 330 329 329 329 329 330 329 328 329 329 329 330 330 330 330 330 330 330
337 337 335 333 334 334 333 334 337 337 337 338 337 338 339 339 339 339 339 338 338 338 338 337 337 336 334 333 333 333 333 333 333 333 334 334 335 335 335 333 333 331 329 329 330 330 331 332 331 332 332 332 332 333 333 333 332 332 332 332 331 330 330 330 331 331 330 330 329 329 329 330 331 329 328 329 329 329 329 328 328 329 329 329 330
334 335 335 334 334 334 333 333 335 336 337 338 337 337 339 339 340 339 339 339 338 338 338 337 337 336 335 333 333 332 332 332 332 333 333 334 334 335 334 333 332 330 327 327 329 330 331 331 332 332 332 332 331 332 333 333 332 332 332 332 332 331 330 330 331 331 330 329 329 329 329 330 329 328 329 330 328 328 329 328 327 328 329 329 329
334 333 332 333 334 334 332 332 333 335 336 336 335 336 338 339 340 339 339 339 339 338 338 337 337 337 335 333 333 332 332 332 332 332 333 333 334 334 334 332 331 329 327 328 331 332 332 332 332 333 333 331 330 332 333 332 332 332 332 332 332 331 331 330 331 331 330 330 330 328 329 329 328 328 329 329 329 328 327 327 327 328 328 328 329
335 333 331 332 333 333 332 331 332 333 334 334 335 336 337 338 339 339 339 338 339 338 337 337 337 337 335 334 333 332 332 332 332 332 332 332 333 334 334 332 331 330 329 331 332 333 333 332 332 333 333 331 330 331 333 332 332 332 332 333 333 332 331 330 331 332 330 330 331 330 330 329 328 328 328 327 329 329 327 327 327 328 328 327 327
335 334 332 332 333 333 332 331 332 332 333 334 335 336 335 336 337 338 338 338 338 338 337 337 337 336 335 335 334 333 332 332 332 332 331 331 332 333 334 333 333 332 331 332 333 333 333 331 331 332 332 330 329 331 333 332 331 331 332 332 332 332 331 331 331 331 330 330 331 331 330 329 328 328 328 326 327 328 329 327 324 324 325 326 327
336 336 335 334 333 333 332 332 331 331 332 333 334 336 336 337 336 336 337 337 337 337 337 337 337 336 335 335 334 333 333 332 332 332 331 331 332 332 333 333 333 332 331 332 333 333 332 332 332 332 331 330 330 331 333 332 331 330 331 332 332 332 331 331 331 331 330 330 331 331 330 328 327 327 327 326 326 326 328 326 321 321 323 324 326
333 333 333 333 333 332 332 331 329 329 330 330 332 335 337 338 336 335 336 337 337 337 337 336 336 336 335 334 334 333 333 332 332 332 331 331 331 332 332 333 332 331 331 332 332 332 333 333 332 331 331 331 331 332 332 332 331 330 330 331 331 332 332 331 331 330 330 330 330 330 329 328 327 327 326 326 326 324 324 322 319 320 322 323 325
328 328 328 329 329 328 329 328 326 327 329 328 330 332 333 334 335 334 336 337 338 337 337 336 335 335 334 334 334 334 333 332 332 332 331 331 331 332 332 333 332 331 331 332 333 333 333 332 332 331 331 332 332 332 332 332 331 330 330 331 331 331 332 332 331 331 331 330 330 329 329 328 328 328 327 326 326 323 322 320 318 320 321 321 324
326 326 326 326 326 326 326 325 325 326 327 327 328 329 329 330 332 334 336 337 337 337 337 336 335 334 334 334 334 334 334 332 332 332 331 331 332 332 332 333 332 332 332 332 333 333 333 332 332 332 332 332 332 332 331 331 331 330 330 331 331 330 331 332 331 331 331 330 330 329 329 328 328 328 327 327 326 322 320 318 318 320 319 319 321
325 325 325 325 326 326 326 325 324 326 327 326 327 328 329 330 331 333 335 336 337 336 335 334 334 335 334 334 334 333 333 332 331 331 331 332 332 332 331 331 332 332 332 333 333 333 332 332 332 332 332 331 331 331 331 331 331 330 329 330 331 331 331 332 331 331 331 330 329 329 329 328 328 328 327 327 326 322 319 318 318 319 318 317 317
324 324 324 324 325 326 326 326 325 325 325 326 327 327 328 329 329 329 329 331 333 332 331 333 334 334 334 334 334 333 332 332 331 331 331 332 331 331 330 331 331 331 332 333 334 333 332 333 333 332 332 331 331 331 330 330 330 330 329 330 331 332 332 331 331 330 330 330 330 328 328 328 328 328 327 327 326 323 320 319 319 319 318 317 315
323 322 321 322 323 323 324 326 326 326 326 326 326 326 327 327 326 325 325 326 328 329 330 332 333 332 330 330 333 334 333 332 331 331 331 331 331 330 330 331 331 331 333 333 332 332 332 333 333 332 332 331 331 330 330 330 330 330 330 330 331 332 332 331 331 331 330 330 329 329 328 328 328 328 328 327 327 325 322 319 319 318 318 317 316
320 319 318 319 319 319 320 322 324 326 327 327 327 325 325 326 325 324 325 326 327 327 329 329 330 330 329 327 329 331 333 332 331 331 331 331 331 331 330 331 332 332 333 333 332 332 333 333 332 332 332 331 331 331 330 330 330 330 330 330 331 332 332 332 331 332 331 330 329 329 327 328 328 327 327 327 327 326 324 321 319 318 317 317 318
317 316 316 316 317 317 317 318 320 322 325 327 328 326 326 326 325 324 325 326 326 327 327 328 327 328 328 328 327 328 331 332 331 331 331 331 331 331 331 331 332 333 333 333 332 332 333 332 332 332 332 332 332 331 330 330 330 331 330 331 332 332 332 331 331 331 331 330 330 329 328 327 327 327 327 327 326 326 325 323 321 318 317 316 316
315 314 314 314 314 314 315 315 316 319 321 324 327 327 327 326 325 324 325 326 326 327 328 328 328 328 329 329 328 328 331 332 332 331 331 331 331 331 331 332 333 332 332 332 331 332 333 332 332 332 332 332 332 331 330 330 330 331 331 331 332 332 331 331 330 330 330 331 330 329 327 327 327 327 326 326 326 326 325 323 321 318 316 315 314
313 313 312 312 313 312 313 313 314 315 316 319 322 325 327 327 326 326 326 326 326 327 327 328 328 328 329 330 330 330 330 330 331 332 331 332 332 331 332 332 332 332 331 331 331 331 332 332 332 332 332 332 331 331 330 330 330 330 331 331 331 331 331 330 330 329 329 331 330 329 328 327 327 327 326 326 326 325 325 325 322 317 314 314 314
312 311 311 311 311 311 311 311 312 312 313 314 317 321 325 326 326 326 326 326 327 327 327 328 328 328 328 328 329 330 329 327 329 331 332 332 332 332 332 332 332 331 331 331 330 330 330 330 331 331 331 331 330 331 330 330 330 330 329 329 329 330 331 329 329 329 329 330 330 329 328 328 328 328 327 326 325 325 326 325 324 321 316 313 312
310 310 310 310 310 310 310 310 310 310 311 312 313 315 319 322 324 325 326 327 328 327 328 329 329 329 328 327 327 329 329 327 326 329 332 331 332 333 333 331 330 329 330 329 328 329 330 330 330 330 329 329 329 329 330 329 329 329 329 329 329 329 330 329 328 328 329 329 329 329 329 328 329 328 327 326 326 326 326 326 325 325 321 316 315
308 308 309 309 309 309 309 309 309 309 309 310 311 311 313 315 319 322 325 327 328 328 329 329 329 329 328 327 327 328 329 328 326 327 330 331 331 332 331 330 329 329 328 328 327 328 329 329 329 329 328 328 328 328 328 328 328 329 329 329 329 329 329 329 328 327 328 329 329 329 329 330 329 329 328 327 327 327 327 326 325 325 323 321 320
307 307 308 308 308 308 308 308 308 308 308 309 309 309 310 312 315 319 322 325 327 328 328 329 329 329 328 329 328 328 329 328 326 326 329 331 331 330 330 329 328 327 327 326 327 327 328 328 328 329 328 328 328 328 327 328 328 328 329 329 329 329 329 329 328 328 328 328 329 329 329 330 330 329 329 329 329 328 327 326 325 325 324 322 323
306 306 306 306 307 307 307 307 307 307 307 307 308 308 308 309 311 314 319 323 325 327 328 328 328 328 329 329 329 329 328 328 327 326 327 330 331 329 328 326 326 327 326 326 326 326 327 328 328 329 328 328 328 328 328 328 327 328 328 328 328 328 329 329 328 328 328 328 329 329 329 329 330 330 329 329 329 328 326 325 325 325 324 322 323
306 305 305 306 306 306 306 306 306 306 306 306 306 307 307 307 309 312 316 320 323 325 327 327 327 327 329 330 330 329 328 327 327 326 325 328 329 328 326 326 326 326 326 325 325 325 326 327 327 328 328 328 327 327 327 327 327 328 328 328 328 328 328 328 328 328 329 329 329 329 329 329 330 330 329 329 328 326 326 325 325 324 323 322 323
305 305 305 305 305 305 305 305 305 305 305 305 306 305 306 306 308 310 314 318 321 324 326 327 327 327 328 329 329 329 328 328 328 327 325 326 327 327 326 326 325 325 325 324 323 324 325 325 326 328 328 327 327 327 327 327 327 327 327 327 327 326 326 327 328 328 329 329 329 329 329 329 330 329 329 328 326 325 325 325 324 323 323 322 322
305 304 304 304 304 305 305 304 304 304 304 304 304 305 305 305 306 307 311 315 318 320 323 325 327 327 327 327 327 327 327 328 328 327 326 325 326 326 325 325 325 325 324 322 323 324 324 325 326 327 327 326 326 326 326 326 326 327 327 327 326 326 325 326 327 327 328 329 329 329 330 330 330 329 328 327 326 325 325 325 323 322 321 321 320
304 304 304 304 304 304 304 304 303 303 303 303 304 304 304 304 305 306 308 312 315 317 319 322 324 325 326 327 326 326 327 327 327 326 326 325 326 325 325 325 324 323 321 322 323 323 323 324 326 326 325 325 324 324 324 324 325 325 325 325 325 325 325 325 326 326 327 328 328 328 330 329 329 328 327 326 326 323 323 323 322 321 320 319 318
303 303 303 303 303 303 303 303 303 303 302 302 303 303 303 303 304 305 306 309 311 314 315 317 320 322 325 326 325 325 326 327 326 326 325 325 325 325 325 324 322 321 321 322 323 323 323 324 325 324 323 323 323 322 322 322 323 323 323 323 323 323 324 324 324 325 327 328 328 328 329 328 328 328 327 326 325 322 321 321 320 319 318 316 316
302 302 302 302 302 303 303 303 302 302 302 302 302 302 303 303 303 304 305 306 308 311 313 314 316 321 324 325 325 325 326 326 326 326 326 325 325 325 323 321 321 320 321 322 322 323 324 324 323 323 322 321 322 322 322 322 322 321 321 321 321 322 323 323 323 324 325 327 327 326 327 326 326 325 325 325 324 322 321 320 320 319 318 316 316
301 301 301 301 301 302 302 302 302 302 302 302 301 302 302 302 303 304 304 305 306 308 310 311 313 318 322 323 324 325 325 326 326 326 325 325 324 323 321 320 320 320 320 320 320 321 321 321 321 321 321 321 321 321 321 321 321 322 321 321 321 321 322 322 323 323 324 325 325 324 325 324 322 320 320 320 321 320 320 319 318 318 317 317 317
301 301 301 301 301 301 301 301 301 301 301 301 301 301 301 302 303 303 304 305 305 306 307 309 310 314 317 319 323 325 325 326 326 325 325 324 323 321 320 320 319 318 318 318 318 318 318 318 319 319 319 319 320 319 320 320 320 321 321 321 321 320 321 321 322 322 323 323 322 322 321 319 316 315 315 315 316 316 316 315 315 315 315 315 315
301 301 301 301 300 300 300 300 300 300 300 301 301 301 301 301 302 303 303 304 304 304 306 307 308 310 312 315 320 323 324 325 325 324 324 323 321 319 318 318 317 317 316 316 316 316 316 316 317 318 317 318 318 318 318 319 320 320 320 321 320 320 320 321 321 321 321 320 319 318 317 315 314 314 315 316 316 317 317 316 317 317 317 317 316
300 300 300 300 300 300 300 300 300 300 300 300 300 300 300 301 301 302 302 303 303 304 304 305 306 308 308 311 315 318 321 322 323 324 323 321 320 318 315 314 314 314 314 314 314 314 314 314 314 315 315 315 316 316 316 319 320 320 320 320 320 320 320 319 318 319 318 317 317 317 317 317 317 318 319 319 320 320 320 320 320 320 320 319 319
300 300 300 300 300 300 300 300 300 301 300 300 300 300 300 300 300 301 302 302 303 303 303 304 305 306 307 307 308 311 315 316 318 321 321 318 317 316 313 311 311 311 311 312 311 311 312 311 311 312 313 313 313 313 315 318 321 320 320 320 320 320 319 317 317 317 317 316 316 317 317 318 318 319 319 319 319 319 319 319 319 320 320 320 319
300 300 300 300 301 300 301 301 301 301 301 300 300 300 300 300 300 300 301 301 302 302 303 303 304 304 306 307 306 307 309 310 311 313 315 314 313 311 310 309 309 307 307 307 307 307 307 308 309 311 312 312 313 313 315 319 321 321 321 321 321 319 318 317 316 316 316 315 315 316 317 317 317 317 316 317 317 317 317 316 315 315 315 315 314
300 300 300 300 300 301 300 300 301 301 301 301 301 301 300 300 300 300 300 300 301 301 301 302 303 303 304 306 306 306 306 307 307 308 309 310 309 308 307 307 306 305 303 303 304 304 304 305 306 308 309 311 312 313 315 319 321 321 321 321 321 320 318 317 315 314 314 314 314 313 314 315 315 313 313 313 314 314 314 312 310 309 308 307 307
300 300 300 300 300 300 300 300 300 300 301 302 301 301 301 300 300 300 300 300 300 300 301 301 302 303 303 304 306 306 306 306 306 306 307 307 307 306 305 305 304 304 302 302 302 302 302 302 302 303 305 307 308 309 313 317 320 321 321 321 321 320 317 314 313 311 311 311 311 310 310 311 310 309 308 308 309 309 308 306 305 304 302 301 300
300 300 300 300 300 300 300 300 300 300 301 301 301 302 301 301 301 300 300 300 300 300 300 301 302 302 303 303 304 305 306 306 306 306 306 306 306 305 305 304 303 302 301 301 301 301 301 300 300 301 301 301 302 303 308 313 317 319 320 321 321 320 316 312 310 309 309 308 308 308 307 307 306 305 304 304 304 304 303 301 300 299 299 299 299
300 300 300 299 299 299 299 300 300 300 300 300 301 301 301 301 301 301 300 300 300 300 300 301 301 302 302 302 302 303 304 305 306 306 306 306 305 305 304 304 303 302 301 301 300 300 300 300 300 300 300 300 300 300 302 307 311 314 316 318 318 318 315 312 309 308 307 306 306 306 305 304 303 302 301 300 300 299 299 298 298 299 300 301 302
299 299 299 299 299 299 299 300 300 300 300 300 300 300 300 301 301 301 301 301 300 300 299 300 301 301 301 301 301 302 302 303 304 306 306 305 305 304 303 303 303 303 302 301 300 300 300 299 299 299 299 299 300 299 299 301 304 307 310 312 313 312 311 310 308 305 304 303 302 301 301 300 299 299 299 299 299 299 300 300 301 303 303 304 304
299 299 299 298 298 298 299 300 300 300 300 300 300 300 300 300 300 301 301 301 301 301 300 300 300 300 300 300 300 301 302 302 302 303 303 303 304 304 303 303 302 302 302 301 301 300 300 299 299 298 299 299 299 299 299 299 300 301 303 305 306 306 306 306 305 302 301 300 299 298 298 298 299 299 300 301 301 302 303 303 304 304 304 304 303
299 298 298 298 298 298 299 299 300 300 300 300 300 300 300 300 300 300 301 301 301 301 301 300 300 300 299 299 300 300 301 301 302 302 302 302 302 303 304 304 303 303 302 301 301 301 301 300 300 300 300 300 299 298 299 299 299 299 300 300 301 301 301 302 301 300 298 298 298 299 299 300 301 301 302 302 303 303 303 304 304 303 303 303 303
299 299 298 298 298 298 298 299 299 299 300 300 300 300 300 300 300 300 300 301 301 301 301 301 301 300 300 299 298 299 299 300 301 301 301 301 301 302 302 303 303 304 303 302 301 301 301 301 301 300 300 299 299 298 299 299 300 300 300 300 300 300 299 299 299 299 298 299 300 301 301 302 302 302 302 302 302 302 302 302 302 301 301 301 301
299 299 299 299 298 298 298 298 298 298 299 299 299 300 299 300 300 300 300 300 300 300 300 301 301 301 300 300 298 297 298 298 299 300 300 300 300 301 301 301 302 303 303 303 302 301 301 301 301 301 300 300 299 298 298 299 299 299 300 300 299 298 298 298 299 299 300 301 301 301 301 301 301 301 301 301 300 300 300 300 300 300 300 300 300
299 299 299 299 299 299 298 298 298 297 297 298 299 300 299 300 300 300 300 299 299 299 300 300 300 300 300 300 298 297 297 297 298 298 299 299 300 300 300 300 300 301 302 302 302 301 301 301 301 301 300 299 298 298 297 298 298 298 298 298 298 298 298 299 300 300 301 301 301 301 301 301 300 300 300 300 300 300 300 300 300 299 299 299 299
300 299 299 299 299 299 299 299 298 297 297 298 299 300 299 300 300 300 300 300 300 299 299 299 300 300 299 299 298 298 297 296 297 297 298 299 299 300 300 300 300 300 301 301 301 301 301 300 301 300 299 298 298 298 298 297 298 297 297 297 297 298 300 300 300 300 300 300 300 300 300 300 300 300 300 299 299 299 299 299 298 298 298 298 297
300 300 299 299 298 298 299 298 297 297 297 298 299 300 300 300 300 299 300 300 299 299 299 299 299 300 300 299 299 298 297 297 296 296 297 297 298 299 299 300 300 300 300 301 301 301 300 300 300 299 299 298 298 298 298 298 298 298 298 298 298 299 300 300 300 300 300 300 300 300 300 299 299 299 299 298 298 298 298 298 297 297 297 296 296
300 299 298 297 296 297 297 297 297 297 297 298 299 299 299 299 300 299 299 299 299 299 299 299 299 299 299 299 299 299 298 297 297 297 296 296 296 297 297 298 299 299 299 298 298 299 299 299 298 298 298 298 298 298 298 298 298 298 298 298 299 300 300 299 299 300 300 300 299 299 299 299 298 298 298 297 297 297 297 296 296 296 296 295 295
299 297 296 295 296 296 296 296 297 297 297 298 299 299 299 299 300 299 299 299 299 299 298 299 298 298 299 300 299 299 298 298 297 297 297 296 296 296 296 296 296 297 296 297 297 297 297 297 297 297 297 297 297 297 298 298 298 298 298 298 299 299 299 299 299 299 299 299 299 298 298 298 297 297 297 297 296 296 296 295 295 295 295 294 294
Wind_Speed
13 21 24 24 25 25 24 25 27 26 27 29 30 30 31 32 32 29 26 25 27 28 29 27 24 23 23 24 23 22 22 21 21 21 23 24 24 24 24 24 26 25 22 20 19 17 17 17 16 17 16 16 15 13 12 12 12 13 14 17 19 19 18 18 21 23 21 16 12 11 12 12 12 13 13 16 19 19 16 14 12 12 12 12 12
12 16 19 21 21 21 23 26 29 30 31 34 34 34 33 31 31 31 29 29 29 30 30 29 28 26 26 27 24 23 22 20 21 21 22 23 24 23 24 26 26 24 22 20 19 18 17 16 16 17 17 16 14 13 14 14 14 15 16 17 19 20 21 21 24 23 18 15 13 9 7 7 9 11 12 13 14 15 15 14 13 13 13 13 13
13 13 14 18 19 20 23 25 29 33 36 38 38 37 35 32 30 31 33 32 31 32 32 31 30 27 25 25 24 23 23 21 20 20 21 22 23 23 24 26 26 23 22 20 19 17 17 17 16 17 17 16 16 15 15 16 15 17 17 17 19 20 20 24 26 21 18 17 13 7 3 4 5 6 8 10 11 11 13 14 14 14 13 12 12
13 12 12 15 18 21 25 26 29 32 35 35 35 36 38 36 33 34 34 35 35 35 35 31 29 26 22 21 21 21 21 21 19 19 20 20 22 23 24 25 24 23 21 20 19 18 17 17 17 17 16 16 16 15 15 17 16 17 20 20 22 22 20 24 24 18 21 21 10 3 3 3 2 4 7 8 10 12 12 13 14 13 13 12 12
13 14 12 13 17 22 27 29 31 32 35 36 36 36 39 40 38 37 37 37 37 38 36 32 28 26 21 17 17 16 16 18 19 19 20 21 22 23 24 23 23 23 21 19 19 18 18 17 17 16 15 14 14 14 16 17 16 18 21 22 25 26 24 26 22 16 24 25 14 7 5 2 2 6 8 5 8 11 10 11 11 11 12 12 13
7 10 11 11 15 20 25 29 30 31 33 35 33 29 30 37 39 37 36 36 35 35 35 32 29 27 23 20 20 18 16 18 21 22 23 23 23 23 23 22 22 22 20 19 18 18 18 18 17 16 15 15 13 14 17 17 17 18 21 22 25 27 26 27 22 19 25 21 14 13 7 3 7 10 7 3 5 7 8 10 10 11 12 11 13
5 6 7 8 11 14 16 19 21 22 22 22 19 16 15 26 33 34 34 34 34 33 33 33 30 28 26 24 24 23 20 20 21 23 24 25 24 24 23 22 22 21 20 19 18 18 18 17 16 16 17 15 13 15 17 17 18 19 21 23 25 27 27 28 23 21 25 18 12 13 5 5 16 17 7 4 4 3 6 10 10 11 11 11 13
7 7 7 7 9 10 12 15 16 16 16 14 12 10 7 12 20 26 30 32 34 33 32 32 31 29 29 26 24 24 23 21 21 21 23 23 23 24 24 22 22 21 20 20 19 18 17 15 15 16 17 16 16 18 18 17 18 19 22 24 25 27 27 29 27 24 26 19 13 13 7 8 20 19 13 11 6 2 4 7 8 11 12 11 15
8 8 8 7 8 11 13 16 17 16 16 15 16 14 11 11 13 17 24 29 32 32 31 31 31 30 30 28 25 23 22 22 21 21 21 22 23 24 24 23 22 21 20 20 19 18 16 15 15 17 17 18 19 19 18 17 18 20 24 25 25 27 27 28 28 27 27 22 16 14 9 13 18 15 15 15 8 5 4 4 7 10 10 12 18
5 5 7 9 12 17 17 13 7 3 5 11 16 19 19 20 18 17 22 27 28 29 30 30 31 30 30 29 26 23 20 20 20 21 21 22 23 24 23 23 23 22 21 20 19 18 16 15 16 17 18 18 20 20 18 17 17 19 23 26 26 25 25 27 27 27 27 22 18 16 14 17 15 10 13 15 9 6 4 4 9 11 10 13 19
8 8 7 5 5 4 4 3 8 6 2 8 14 19 24 28 25 20 22 25 26 28 29 30 30 30 30 29 27 25 22 21 21 22 22 23 23 24 24 24 23 23 22 22 20 18 17 16 17 17 18 19 20 20 19 17 17 19 21 24 25 24 23 24 26 27 26 21 18 17 17 21 19 13 16 18 12 8 6 5 9 14 15 16 20
11 11 12 12 14 16 16 14 11 5 3 8 11 13 18 23 26 24 23 23 26 29 30 30 30 29 29 29 28 26 24 23 24 24 24 25 24 24 24 24 23 23 23 22 21 19 18 17 17 18 19 21 21 19 18 17 17 19 21 22 23 24 23 22 25 27 25 21 19 18 19 23 23 20 22 22 18 16 15 9 9 15 14 13 19
11 11 11 11 11 14 16 14 13 10 7 8 11 12 12 12 16 23 25 24 27 31 30 28 28 28 27 27 27 26 25 25 25 26 26 27 26 26 26 25 25 24 22 22 21 19 18 17 17 19 20 21 20 18 17 17 19 19 20 21 21 22 24 23 24 27 25 21 19 19 19 22 20 19 23 24 20 21 21 13 11 15 12 12 17
11 11 10 9 9 10 11 10 11 8 2 6 10 11 11 12 13 15 18 21 25 28 26 24 24 25 26 26 26 26 26 26 26 26 27 28 27 27 27 27 26 24 23 23 20 18 18 18 17 18 19 19 18 17 16 18 19 18 18 19 19 20 23 23 22 25 26 22 19 19 19 19 18 18 22 24 22 23 23 18 14 11 12 14 13
12 12 11 11 11 12 11 10 9 4 4 9 11 11 11 12 11 10 10 7 15 19 20 22 21 18 20 22 25 26 27 27 27 27 28 28 27 27 27 27 25 25 24 22 20 18 19 18 17 17 17 17 17 17 17 18 18 16 17 18 18 19 21 22 22 23 25 23 20 19 19 19 17 17 22 23 23 25 25 25 21 11 7 8 8
12 12 12 13 16 17 15 14 12 8 6 9 8 8 10 13 12 11 11 9 7 12 17 25 24 19 15 15 21 26 27 27 26 27 28 28 27 26 26 26 24 24 23 21 19 20 20 19 18 17 16 16 16 17 18 18 18 17 17 17 17 18 18 20 21 21 23 24 22 18 18 19 18 17 22 23 22 24 26 27 27 19 10 4 4
13 12 11 13 16 19 19 18 17 13 10 11 10 8 12 14 14 15 12 7 10 13 15 21 23 22 16 12 16 24 26 27 27 27 28 27 26 25 24 24 23 22 21 19 19 20 20 18 18 17 16 15 15 17 17 17 17 18 18 19 18 17 18 19 20 20 21 23 23 20 18 20 19 18 21 22 21 23 25 26 26 25 20 9 3
13 13 12 14 17 19 19 20 22 21 18 13 10 8 11 14 13 11 11 8 8 10 14 17 16 19 19 13 14 20 25 27 27 27 28 27 25 25 24 24 23 22 21 19 19 20 19 17 16 16 15 14 14 15 16 17 17 18 19 20 19 18 17 18 18 20 21 21 22 21 19 19 20 20 21 21 22 22 22 23 24 25 26 20 11
12 12 11 13 16 19 20 22 24 24 24 20 13 8 8 10 8 5 6 8 6 5 8 15 15 17 21 20 19 20 23 26 28 27 26 26 25 25 25 24 23 22 21 21 21 21 21 19 17 16 15 15 15 15 17 17 18 19 19 19 19 18 17 17 17 19 22 22 21 21 20 18 18 20 21 20 22 22 20 20 22 24 26 23 21
10 10 10 12 16 19 19 20 21 21 23 23 18 13 9 8 6 3 4 5 7 9 9 11 13 15 20 25 26 23 21 22 26 27 26 26 26 25 26 25 24 24 23 23 23 23 23 23 20 18 17 16 15 17 17 16 17 19 18 18 19 18 17 17 17 19 22 23 22 21 20 17 17 18 20 20 21 22 20 18 20 24 24 19 19
9 9 9 11 15 18 18 19 19 21 24 25 22 19 15 9 7 7 4 3 10 16 14 12 14 16 19 23 25 23 19 18 20 25 26 26 26 26 26 26 26 25 25 26 25 24 24 24 23 21 19 17 15 16 16 15 17 19 18 19 19 18 18 17 17 20 22 22 22 21 20 18 17 17 19 19 20 20 19 19 19 20 20 17 17
9 9 9 12 15 17 17 18 21 22 24 25 25 24 22 18 14 9 4 4 8 14 16 14 16 18 19 20 20 23 23 18 17 21 26 27 27 27 27 28 28 25 26 25 23 24 25 24 23 22 19 17 15 14 14 14 16 18 19 19 18 18 19 18 17 20 21 21 21 21 20 18 17 17 18 18 19 18 17 19 20 17 17 18 17
9 9 10 12 14 15 15 18 21 22 23 26 26 25 25 24 22 17 8 4 7 11 13 14 17 19 20 18 16 18 23 20 16 21 26 28 28 30 30 30 28 25 25 24 22 23 26 24 23 22 20 18 16 14 13 13 13 15 17 19 19 19 19 18 19 20 21 21 20 20 20 19 18 18 18 17 17 17 16 19 21 17 16 17 16
9 10 11 14 15 15 17 19 22 23 25 26 26 26 27 25 24 23 17 10 6 10 12 14 18 21 21 18 14 14 19 20 17 21 28 31 31 32 32 29 27 26 24 24 22 23 24 23 23 22 20 18 16 15 14 12 11 12 13 16 17 18 18 18 19 19 20 21 20 21 21 20 19 19 18 17 16 16 16 18 19 16 16 16 14
11 11 13 15 16 18 19 21 22 23 25 26 25 25 27 27 25 23 20 16 10 9 11 13 17 20 22 21 18 17 19 21 18 18 24 33 33 29 29 28 27 26 24 23 22 22 22 22 22 22 20 17 15 15 15 14 12 11 12 13 15 16 17 18 18 18 19 20 20 21 21 21 20 18 17 17 16 16 15 16 17 16 16 15 12
13 13 13 14 15 18 21 21 22 23 24 25 25 24 26 27 28 26 22 19 16 12 10 9 12 17 22 25 24 23 23 24 21 17 18 26 30 26 26 27 26 25 25 23 21 21 21 22 22 22 21 18 16 15 14 14 14 13 13 13 13 14 16 17 18 17 17 18 19 19 21 21 19 17 18 17 16 16 14 13 15 15 15 13 11
12 12 12 13 14 17 20 21 21 22 23 23 23 24 26 27 28 28 24 21 18 14 11 8 7 10 16 21 25 27 27 26 26 21 16 19 25 25 25 27 25 25 25 22 21 23 22 22 23 23 22 20 18 16 14 14 14 14 15 14 14 14 14 15 17 17 17 17 18 19 20 20 18 17 17 16 15 15 14 12 13 13 13 12 11
12 12 13 13 13 15 19 21 21 22 22 21 21 22 24 25 27 28 27 23 20 16 12 9 6 5 6 10 17 23 25 25 27 28 22 20 24 26 26 27 26 25 25 24 25 26 24 23 23 23 22 20 19 17 15 16 16 15 16 15 15 15 15 15 16 16 16 15 16 19 19 19 18 17 15 14 12 11 12 12 11 10 11 11 12
13 12 12 12 12 13 17 19 20 22 22 21 21 22 24 27 28 28 28 25 22 19 15 11 7 5 4 6 11 15 17 22 28 31 29 26 26 27 28 27 27 26 26 26 27 26 23 23 23 22 20 19 19 17 15 14 15 15 14 15 15 16 16 16 16 16 15 13 15 19 19 17 18 16 14 13 10 6 8 11 10 9 10 10 14
12 12 11 11 12 14 17 18 20 21 22 21 22 23 24 27 29 28 28 26 24 22 19 15 12 7 4 3 9 14 14 19 28 33 34 31 28 28 28 28 29 28 26 27 27 26 24 24 24 22 21 21 21 18 16 15 15 14 12 12 13 16 18 18 17 16 15 14 15 17 18 17 17 16 14 13 10 7 7 9 8 5 6 11 18
11 11 10 10 12 15 17 19 20 21 21 21 21 23 24 27 29 28 27 26 24 24 22 19 15 8 3 3 9 14 13 17 27 32 33 31 29 29 28 28 28 27 27 28 27 27 28 27 25 23 23 22 20 18 17 16 16 17 15 14 12 14 17 19 17 16 16 16 15 14 14 14 15 16 16 14 12 9 9 9 8 8 7 10 15
10 10 9 9 11 14 16 18 19 20 21 21 22 23 24 26 27 27 26 25 25 25 24 22 18 9 2 5 10 13 13 18 27 30 30 28 27 27 26 27 28 28 30 31 29 29 29 28 26 25 23 21 20 18 17 16 15 15 15 16 15 14 15 17 18 18 18 17 15 13 13 13 13 14 15 16 15 13 11 10 10 11 12 11 11
8 8 8 9 10 13 16 17 19 20 20 21 21 22 23 23 24 25 26 26 26 27 27 26 23 15 8 6 6 12 17 23 27 27 27 25 24 25 25 27 31 32 32 33 32 31 30 28 27 26 23 22 20 18 17 15 14 14 15 15 14 14 16 18 20 21 20 18 16 15 15 16 16 16 16 15 15 15 14 13 12 12 12 11 10
8 7 9 11 12 15 16 18 19 20 21 22 22 22 22 24 25 26 27 27 27 28 28 29 29 24 18 11 1 9 17 25 27 24 23 24 26 26 24 27 33 34 33 34 32 31 29 27 26 25 23 22 20 18 17 15 14 14 15 16 15 15 17 20 21 21 20 19 18 18 18 17 17 17 16 16 16 15 15 15 14 13 12 11 11
7 8 10 12 14 16 17 18 18 19 21 23 23 23 24 26 27 27 28 27 28 30 30 30 31 31 27 20 11 4 7 16 21 23 22 23 28 28 22 24 32 33 32 33 31 29 28 25 23 23 22 20 18 17 16 15 16 17 17 18 18 18 20 22 22 22 22 21 20 20 20 19 18 17 16 15 15 15 15 15 14 13 11 10 10
8 9 11 13 14 15 16 17 17 19 20 21 22 23 25 26 28 28 27 27 29 32 32 31 31 32 32 30 23 15 10 8 12 20 25 23 26 29 26 25 30 31 30 31 29 27 26 24 22 21 20 18 16 16 16 17 18 20 21 21 21 21 23 24 24 23 22 21 20 19 20 19 18 17 15 14 13 13 13 14 13 12 10 9 8
13 14 14 15 15 15 17 18 19 19 19 19 20 21 24 27 29 28 28 29 31 32 32 31 31 31 32 33 31 27 22 18 14 16 23 25 25 28 29 28 29 29 28 29 28 26 25 23 22 20 19 17 15 14 16 18 20 21 23 24 25 25 27 27 25 24 22 20 19 17 17 17 16 15 13 11 10 9 10 11 10 9 8 7 6
17 18 18 18 18 18 19 20 21 21 19 18 18 20 23 26 26 26 27 30 31 30 30 31 31 30 30 32 33 32 30 28 25 20 19 25 28 28 29 30 30 29 27 27 28 27 25 23 22 21 20 18 16 14 15 19 21 22 24 26 27 28 28 28 26 24 22 21 19 17 15 14 14 12 10 8 7 6 6 6 6 5 4 3 2
20 19 18 20 20 21 22 23 23 23 21 19 18 20 22 22 22 23 25 27 28 28 28 29 30 30 30 31 32 33 33 33 31 25 20 23 30 31 29 30 31 29 27 28 29 29 27 25 24 23 22 20 19 16 16 20 23 24 24 26 28 28 28 27 25 24 22 20 18 16 14 12 11 10 8 6 5 4 3 4 3 3 4 5 5
20 20 19 20 21 22 23 23 23 23 23 22 20 20 21 19 18 20 23 24 25 26 27 28 29 31 32 32 33 34 34 33 32 28 24 22 28 33 31 31 31 29 28 29 30 30 30 28 26 25 23 22 21 19 17 18 22 25 26 26 27 28 28 26 24 22 21 19 16 14 12 11 9 8 6 5 5 4 4 4 4 4 5 6 6
19 21 21 20 21 22 22 23 24 24 24 24 23 23 22 19 17 18 19 20 22 25 27 28 28 30 31 31 32 33 33 33 31 29 26 24 26 30 30 30 31 29 29 31 31 32 32 30 28 27 26 24 22 20 19 17 18 21 24 26 27 28 28 26 24 21 18 17 14 12 10 9 7 6 5 5 5 5 5 5 6 7 8 9 8
18 20 21 21 21 22 23 23 24 25 25 24 24 25 23 21 18 16 15 17 20 23 25 26 26 27 28 29 29 30 31 32 31 31 29 27 26 27 27 28 29 28 29 31 31 31 32 31 29 27 26 24 22 20 19 18 17 16 18 21 24 24 24 23 22 19 17 15 13 10 9 8 7 7 7 7 7 7 8 9 10 11 10 10 10
14 15 16 17 18 19 20 21 22 23 24 24 24 24 24 23 21 17 14 14 16 18 21 24 24 25 25 26 26 26 26 27 27 29 30 29 27 26 25 25 25 27 29 30 29 29 30 30 29 27 26 24 21 18 17 17 16 14 14 15 17 18 17 17 18 18 15 13 12 11 11 11 11 11 11 11 10 10 10 11 11 11 10 10 10
9 10 11 13 14 14 15 17 18 20 21 22 23 23 24 24 22 17 15 16 16 15 17 19 21 22 23 23 24 24 24 23 22 23 25 27 27 27 26 24 23 24 25 25 24 27 28 27 26 25 24 22 19 16 15 16 15 13 12 12 13 13 12 12 14 15 14 13 13 14 14 14 14 14 14 14 13 13 12 12 12 11 10 9 9
5 7 9 10 12 12 13 14 16 17 17 18 20 21 23 24 22 17 15 17 18 17 15 16 17 19 19 20 21 23 23 22 20 20 22 22 23 25 26 24 22 21 21 21 22 24 25 23 22 21 20 19 16 14 14 14 14 12 11 11 11 12 12 11 12 13 13 14 14 15 14 14 15 16 17 18 18 18 16 15 13 12 11 10 10
3 4 6 8 10 11 12 13 14 16 16 16 16 17 19 21 20 18 17 18 20 20 17 14 14 15 15 16 18 19 20 21 20 20 21 20 20 21 21 21 21 21 21 21 21 21 21 19 17 16 15 14 13 14 14 13 12 11 11 10 9 10 12 13 15 16 16 15 15 16 17 18 19 19 19 19 19 17 15 14 13 11 11 11 10
6 6 6 8 8 9 11 11 11 14 16 16 14 13 14 16 17 17 17 18 20 21 19 16 13 12 12 13 14 15 17 17 17 18 19 19 18 18 18 17 17 17 17 17 16 15 15 14 12 11 11 12 13 14 13 11 10 10 10 9 8 9 11 14 17 19 19 19 20 21 21 20 20 19 18 17 16 14 13 13 12 11 11 11 11
8 8 9 10 9 9 11 12 11 12 13 12 11 11 12 13 14 14 14 16 18 19 21 19 16 11 10 11 13 14 15 15 15 15 15 15 14 14 14 13 12 11 10 11 11 10 10 9 8 8 10 12 14 14 13 12 10 10 9 8 8 11 15 18 21 22 23 23 22 21 20 19 18 17 17 16 15 14 14 14 13 12 12 12 11
10 10 11 11 10 8 9 11 13 14 11 7 8 10 10 11 13 13 13 14 16 17 20 21 18 14 9 8 10 13 14 15 16 15 15 14 13 13 13 13 13 12 11 11 11 11 11 10 9 9 10 12 14 14 13 13 12 11 10 9 11 14 17 19 20 21 21 21 19 18 18 17 16 16 17 16 15 15 14 14 13 13 12 12 12
11 10 9 10 12 12 12 14 17 19 13 5 4 8 8 8 11 12 13 14 15 18 20 20 18 16 12 6 7 11 12 13 15 16 17 17 15 14 14 14 15 14 14 13 13 12 10 10 11 12 12 13 14 14 13 13 12 12 12 12 13 15 16 17 18 19 19 18 18 19 18 17 16 16 16 16 15 14 14 14 13 13 12 13 13
7 6 9 15 17 17 18 19 21 21 15 6 2 5 6 6 8 9 11 13 15 18 20 18 17 18 16 10 7 8 9 10 12 15 16 18 18 17 16 15 15 14 14 15 15 15 12 11 12 13 14 13 13 12 12 11 11 11 12 13 14 14 15 16 17 18 19 19 20 20 20 18 17 16 16 15 14 13 13 13 12 12 13 13 14
Wind_Direction
167 173 175 174 172 170 165 161 160 162 169 177 175 176 182 181 180 180 186 196 198 199 202 203 202 201 206 210 210 211 210 208 208 208 209 206 205 205 200 196 196 197 198 194 190 190 183 184 189 192 194 193 194 188 185 197 191 174 168 167 164 160 161 165 163 155 143 139 142 147 151 152 157 169 180 184 182 182 181 179 178 172 169 165 158
156 172 178 173 169 164 160 157 161 166 171 178 181 182 183 180 177 180 186 193 197 200 202 202 201 199 203 208 209 209 211 210 207 204 206 206 205 204 198 194 194 192 191 190 186 187 188 192 197 196 195 191 186 180 183 192 185 174 170 170 169 165 165 167 164 156 145 145 145 134 127 131 148 168 179 181 179 179 180 176 173 174 174 171 167
159 173 179 173 165 159 160 161 168 173 176 181 184 182 181 178 177 181 189 194 198 202 204 205 204 202 203 209 211 211 212 211 207 204 203 205 206 204 198 196 194 187 185 189 188 190 196 198 195 193 193 188 182 180 187 195 188 178 178 178 171 165 165 168 168 163 154 150 144 136 124 118 139 165 168 168 173 176 180 177 175 177 176 176 176
164 173 178 174 162 160 166 170 174 178 182 186 186 182 178 178 180 183 190 195 198 203 207 207 205 202 202 206 208 209 212 211 210 210 206 206 205 203 200 196 192 187 187 192 194 196 201 202 198 195 194 189 186 186 192 199 196 184 181 182 175 166 165 170 172 171 165 156 141 108 114 130 163 172 156 160 173 173 177 183 180 178 174 173 174
166 173 178 176 168 168 172 175 177 181 187 189 189 186 181 179 181 184 188 194 199 205 208 207 202 199 197 192 191 194 200 202 205 208 208 208 206 204 203 197 190 190 194 197 198 202 206 207 204 200 199 194 191 194 198 202 203 192 184 184 182 176 174 176 179 183 178 168 156 146 132 151 208 160 150 158 178 175 175 184 184 183 180 172 168
151 168 178 180 177 174 175 180 181 183 190 191 194 199 189 178 177 181 186 192 199 205 208 205 199 196 194 186 181 181 185 194 201 204 205 207 207 206 205 202 197 197 200 202 202 206 208 208 207 204 202 199 197 203 205 202 199 195 190 189 189 185 179 178 182 186 183 178 171 170 165 193 174 152 149 154 170 180 184 187 189 188 186 175 169
119 151 171 180 182 180 178 184 186 188 193 193 203 224 202 175 174 180 186 192 198 204 208 205 199 198 199 194 189 186 187 196 204 206 205 206 208 206 203 201 200 200 201 202 204 205 206 209 210 209 208 206 206 206 209 208 200 196 196 194 192 190 183 180 183 184 184 191 197 187 197 206 173 163 161 153 144 175 191 191 192 185 182 179 175
137 149 169 182 190 191 183 186 192 193 194 192 197 215 202 172 177 183 188 194 199 203 207 204 199 199 201 200 197 193 194 198 202 205 205 206 208 206 203 201 199 198 197 199 201 201 205 213 215 212 211 212 214 211 211 211 203 198 197 196 195 195 192 186 185 184 186 195 200 197 216 195 173 169 164 152 133 119 169 185 186 179 177 177 176
133 147 165 174 186 199 195 190 197 201 196 187 182 184 178 166 176 191 196 199 201 204 206 204 201 201 201 202 200 196 195 197 199 203 205 206 207 205 203 202 198 196 196 197 198 200 207 217 217 211 210 214 216 213 209 207 204 200 196 195 196 199 199 194 190 187 188 191 191 192 192 169 165 167 162 152 138 137 155 173 171 170 173 177 178
94 127 156 170 186 204 206 188 174 211 212 193 187 183 179 176 181 198 204 203 206 207 207 204 203 203 202 203 201 194 190 190 194 200 202 202 202 202 202 200 197 195 195 197 198 201 208 216 216 210 208 213 216 214 208 205 204 201 198 197 196 198 200 199 197 193 190 191 190 187 174 160 156 154 159 157 145 137 139 156 164 163 162 173 179
44 45 54 87 127 181 211 115 74 44 299 230 213 195 188 186 187 199 209 209 208 205 204 204 204 204 203 203 202 197 190 186 186 191 196 198 198 199 200 198 197 195 194 197 201 204 209 215 217 212 208 210 215 215 209 205 202 198 199 198 196 198 199 201 200 195 189 189 192 192 184 173 167 167 168 164 155 142 132 142 161 161 157 167 176
41 43 41 43 47 45 38 36 37 23 255 248 250 229 208 195 189 196 208 211 206 201 201 204 204 203 204 205 205 202 197 191 185 186 192 197 197 197 197 196 196 196 196 199 202 207 212 216 217 215 211 210 212 213 209 205 201 195 196 196 197 200 201 202 202 196 190 189 189 193 193 184 178 177 175 171 168 159 149 142 150 153 151 165 174
38 42 45 43 43 48 47 48 46 29 356 324 304 282 259 229 206 203 205 204 203 200 200 202 204 205 206 207 207 206 204 199 193 189 191 196 199 198 197 196 196 196 197 198 199 205 210 212 212 209 209 210 210 211 207 202 198 195 195 193 195 202 203 202 204 199 193 190 188 189 190 185 183 183 179 177 173 160 150 143 147 150 144 154 167
39 39 44 47 44 46 45 52 66 64 349 277 265 257 259 260 246 232 222 210 200 196 198 203 207 209 210 210 210 210 208 204 201 197 195 197 200 200 199 199 198 197 197 195 193 197 202 206 206 206 208 209 208 209 204 198 197 196 195 193 195 201 201 200 203 202 197 193 190 189 187 185 186 187 183 180 176 166 156 147 145 145 143 149 155
40 37 38 38 37 41 38 32 41 48 255 248 236 234 260 278 273 280 300 261 205 193 197 205 210 216 219 216 213 213 212 207 205 203 200 199 200 201 201 202 202 200 198 196 193 194 199 201 205 208 210 207 208 209 204 198 198 198 197 199 200 200 200 200 202 202 201 199 195 192 192 191 189 188 188 186 183 177 168 158 152 142 143 154 143
36 34 34 31 29 30 29 24 20 8 323 296 273 247 267 294 292 285 321 334 251 220 205 201 204 214 230 231 218 215 214 209 205 202 201 200 200 201 202 203 202 201 200 199 196 195 196 199 205 210 208 206 206 205 200 196 197 200 201 202 203 200 199 202 202 203 205 204 200 198 198 198 195 191 191 191 190 187 180 170 163 156 151 152 142
31 29 26 24 25 23 21 19 14 8 350 326 318 294 269 281 286 266 263 263 245 245 222 202 200 206 217 237 227 216 213 210 205 200 200 201 201 201 201 202 201 201 200 195 189 188 191 196 202 203 202 202 200 198 197 196 199 204 202 200 202 201 201 203 204 204 205 204 203 202 204 203 199 194 193 193 194 193 188 182 178 172 166 156 149
24 21 19 18 19 16 14 15 14 13 11 0 345 321 276 272 282 270 265 266 246 244 226 206 204 205 203 214 227 221 217 214 208 203 202 201 201 200 199 198 197 195 192 185 180 182 186 190 191 192 197 200 198 197 197 196 201 205 202 200 201 201 201 203 204 204 203 202 202 202 204 206 203 198 195 195 194 193 189 189 190 185 177 173 168
20 17 14 13 14 10 7 9 11 15 16 15 13 358 318 300 296 259 269 299 298 279 232 203 201 208 205 205 212 218 222 219 212 207 203 201 200 197 194 191 188 186 185 181 178 179 182 183 182 183 190 197 198 197 196 196 201 203 200 202 205 203 203 202 201 202 201 200 199 200 202 204 204 202 198 197 197 193 187 188 196 193 186 182 176
19 15 12 11 11 9 7 6 6 12 17 18 19 13 358 340 323 263 246 269 257 258 251 216 205 213 215 211 205 208 224 229 218 209 203 200 196 191 188 186 184 184 183 182 179 179 179 180 181 181 185 195 199 196 196 198 199 199 199 200 203 203 203 203 200 199 199 198 198 199 202 201 201 201 199 199 201 200 194 192 197 197 193 192 184
23 15 11 11 10 7 6 6 8 14 18 19 19 20 20 8 326 299 288 257 241 237 233 224 216 217 219 214 202 201 221 241 231 213 203 197 192 189 187 186 184 183 182 181 182 182 181 178 178 178 180 188 193 190 194 197 196 198 198 198 201 202 203 204 201 198 198 199 199 200 201 200 200 202 202 202 203 204 203 200 198 198 200 203 198
28 18 15 12 11 6 2 8 14 16 18 18 16 18 21 17 358 332 286 223 228 227 220 216 214 215 217 214 204 200 210 231 245 225 204 194 192 190 187 183 180 178 178 179 181 181 180 178 176 176 177 179 182 182 186 189 193 197 197 198 202 202 203 204 202 199 199 200 202 203 202 201 202 203 202 204 205 205 206 204 202 200 199 202 206
28 23 23 19 14 7 2 10 16 15 15 16 13 11 13 12 8 1 345 266 227 223 222 215 210 210 209 209 208 206 205 210 232 228 206 193 190 186 182 180 177 177 179 179 176 175 177 178 175 174 176 177 178 178 178 180 187 194 196 198 201 202 204 205 201 199 200 202 204 205 204 203 204 206 205 207 211 212 210 208 206 204 203 205 212
26 26 26 24 20 14 11 13 15 15 14 14 11 7 7 7 6 4 359 338 280 242 232 220 210 204 198 199 209 217 208 197 206 219 202 187 183 180 178 179 177 175 177 176 174 174 176 177 175 175 176 178 181 182 182 182 185 192 196 195 198 201 203 203 201 201 203 204 204 204 204 203 204 207 209 210 217 220 216 211 209 211 213 217 224
22 24 23 22 21 18 16 14 13 14 13 11 10 6 4 4 2 1 360 353 328 279 252 231 213 195 185 189 200 211 208 191 194 218 202 181 178 178 175 174 173 170 171 174 176 179 181 179 177 176 176 179 184 187 189 190 189 193 195 193 195 195 194 196 199 203 203 200 199 199 200 201 204 208 210 214 219 220 217 214 216 219 218 224 241
21 21 20 19 19 17 16 14 12 12 11 9 8 5 4 5 5 3 360 356 349 329 296 260 220 192 181 185 194 200 201 191 188 214 215 185 177 176 173 173 173 171 171 175 179 184 187 185 182 180 177 179 185 189 192 193 192 191 190 190 192 192 191 193 196 200 200 197 195 195 197 200 203 206 209 214 218 217 215 217 219 221 219 228 252
24 22 18 17 17 15 15 13 11 11 10 9 7 4 3 4 4 5 3 358 353 347 335 309 251 204 186 187 192 194 196 193 187 196 213 195 179 177 177 176 174 171 173 176 176 177 180 182 182 181 178 179 184 189 195 197 194 192 190 189 190 191 191 192 193 195 196 198 198 195 196 201 204 207 209 210 213 216 219 223 221 220 225 238 251
27 24 19 17 15 13 13 13 11 10 7 7 7 6 5 4 4 5 7 5 358 352 348 336 300 245 203 190 192 189 190 194 188 184 191 196 186 181 182 180 175 174 177 175 170 168 170 173 174 176 178 181 182 185 192 201 203 201 199 198 196 194 193 192 193 196 198 202 204 200 200 204 205 208 207 199 199 211 220 222 219 220 233 244 237
27 25 21 17 13 12 13 12 13 11 7 4 4 5 6 8 10 10 11 12 6 359 357 353 339 300 261 218 195 188 186 189 186 179 181 191 192 187 185 182 177 177 178 175 171 171 171 172 172 173 174 175 172 169 171 185 197 200 202 204 201 196 195 196 198 202 205 205 204 202 203 205 204 203 197 185 182 190 204 206 206 221 238 231 216
27 25 22 19 15 14 14 14 14 13 10 5 1 2 5 9 12 13 14 16 14 10 8 5 358 343 310 261 201 193 189 186 183 179 179 185 191 189 184 180 177 177 177 173 172 174 175 174 174 173 170 167 164 159 153 155 161 164 169 181 190 193 196 198 197 196 196 196 197 200 200 199 198 193 181 174 172 160 158 171 178 202 227 207 202
27 25 22 19 18 17 15 14 13 12 11 8 4 4 8 12 14 15 16 18 20 20 20 16 8 2 346 280 216 205 200 190 185 181 178 180 188 189 182 177 177 177 173 170 171 173 173 174 175 173 169 165 162 159 157 154 149 145 144 147 158 178 190 195 191 182 181 186 190 191 187 184 186 180 169 166 167 158 145 139 131 117 126 168 184
27 25 21 18 17 16 16 14 12 12 12 11 10 9 11 14 15 16 18 21 25 27 28 26 19 10 324 267 228 211 206 197 190 183 178 180 185 184 179 177 176 172 168 167 168 168 167 168 170 168 165 162 159 155 157 163 163 157 149 143 142 150 164 175 178 176 178 183 183 177 169 164 161 158 155 154 152 148 141 135 127 121 120 127 140
27 23 20 20 19 17 18 17 14 16 16 15 16 16 15 17 19 21 24 26 27 29 31 32 28 21 358 320 239 202 197 197 193 185 181 183 183 176 171 169 167 163 162 162 161 159 159 160 162 162 158 155 153 150 149 157 168 171 166 158 151 150 154 162 170 175 176 175 172 166 158 150 146 145 144 142 140 139 140 138 134 131 130 128 130
25 22 19 23 25 23 23 22 20 21 23 25 24 23 23 27 28 28 29 29 30 31 33 34 33 31 23 11 337 191 193 196 195 191 186 184 180 173 167 162 160 158 156 155 153 153 153 153 155 156 154 152 151 148 144 145 155 165 169 165 158 156 159 162 166 169 167 161 158 155 149 141 140 140 138 137 137 138 141 141 137 134 133 133 134
26 25 22 24 29 29 26 24 22 24 29 31 30 29 31 33 34 33 32 31 33 35 33 34 36 36 34 31 38 88 171 187 189 187 184 178 170 165 159 153 153 153 151 149 148 148 149 149 150 152 152 151 150 149 145 141 146 154 159 157 152 152 155 156 156 156 155 151 148 146 142 137 134 131 129 131 133 135 137 136 134 133 130 131 132
21 22 21 22 26 28 26 25 25 27 30 32 33 35 37 38 38 37 35 34 37 37 34 33 35 39 40 38 38 49 75 114 152 163 164 160 154 152 150 146 144 143 143 142 141 141 142 141 143 147 149 147 147 150 150 146 146 150 150 147 146 146 146 145 142 141 141 140 139 139 138 136 133 129 126 128 129 131 133 128 126 126 123 121 120
17 20 21 21 23 26 28 29 30 30 29 30 34 38 42 43 41 39 38 38 39 38 36 34 34 39 45 45 42 44 55 67 79 117 137 139 135 135 138 139 137 132 131 132 131 129 130 130 131 133 137 137 136 143 151 151 150 150 148 144 142 140 138 136 133 131 132 130 129 131 134 135 134 128 124 127 129 132 131 122 118 120 118 117 113
23 22 21 22 23 25 28 30 32 32 31 32 36 40 44 46 44 41 41 42 41 37 37 38 37 39 46 52 51 47 49 57 58 65 96 117 121 121 124 129 129 124 120 120 121 118 116 116 117 116 117 119 120 129 145 152 152 153 151 146 143 139 134 132 129 126 126 126 123 123 126 130 129 122 120 126 130 134 132 117 108 107 99 78 51
27 25 23 24 26 28 29 30 30 30 33 36 38 41 45 45 44 45 46 46 44 41 41 42 43 44 47 52 57 56 53 56 57 52 62 92 107 112 114 117 118 116 112 111 111 110 105 101 102 103 103 103 102 109 130 145 150 153 153 150 147 143 135 131 129 126 123 122 121 119 117 117 115 110 108 111 110 112 107 83 56 42 45 36 19
24 25 25 27 29 29 28 26 25 28 34 37 38 41 42 42 43 48 50 50 50 49 50 50 49 50 51 51 56 60 60 61 61 56 54 71 94 104 107 108 108 108 106 104 103 101 97 92 91 92 92 91 89 92 107 129 142 148 151 153 152 148 141 134 131 128 124 121 119 117 113 107 102 96 88 80 74 63 54 47 33 36 57 60 52
27 26 27 28 28 27 28 27 26 28 31 34 37 40 40 41 44 48 51 55 57 56 56 55 54 53 54 53 53 58 62 65 68 67 60 61 79 93 99 103 105 104 100 98 97 95 92 88 85 85 83 80 79 82 90 106 124 136 145 151 151 148 145 140 132 126 121 117 114 112 108 100 89 80 68 58 57 56 57 67 75 81 85 83 76
32 30 29 28 26 27 29 28 28 29 29 32 35 37 38 39 41 45 52 58 60 60 58 56 55 54 54 54 54 56 60 63 69 74 70 63 70 83 90 95 101 102 98 94 92 91 90 86 83 82 80 75 70 71 79 91 102 113 127 138 139 138 140 140 132 121 115 111 106 102 99 93 88 88 88 86 88 91 94 97 95 93 92 88 85
35 31 30 30 29 29 29 28 28 29 30 31 32 33 32 30 30 36 48 54 57 61 63 61 59 56 54 55 56 57 59 61 65 72 74 68 69 79 87 91 95 96 94 92 91 89 87 86 84 82 80 76 69 65 69 78 86 94 103 114 121 125 130 133 125 114 107 104 102 101 100 100 102 104 105 106 106 106 107 105 101 99 97 94 93
43 36 32 30 26 26 30 32 32 30 29 29 30 30 27 24 24 30 42 51 56 63 67 67 65 62 59 57 56 57 60 62 62 67 71 70 69 74 82 88 90 90 89 90 90 90 87 86 87 85 81 78 75 71 69 70 73 79 82 88 98 106 113 120 117 107 101 101 105 107 107 107 108 107 105 104 102 100 100 99 98 99 97 93 89
42 36 33 27 20 17 21 28 31 30 29 27 28 30 29 26 25 28 35 44 51 58 66 71 71 69 66 64 62 60 60 61 62 63 65 67 67 69 72 77 83 90 94 95 92 90 88 85 84 83 79 78 80 83 83 80 77 76 77 77 82 87 93 103 109 108 108 111 112 113 112 110 109 108 106 102 96 93 94 94 93 92 88 83 80
1 11 17 13 12 12 12 18 26 28 26 21 18 24 30 29 28 28 31 37 42 48 56 65 71 73 72 70 71 71 68 67 66 65 65 66 68 69 68 69 71 78 90 98 96 89 83 78 76 76 75 73 76 80 82 84 85 84 82 82 83 82 84 93 101 105 109 111 113 114 114 111 109 107 105 100 95 93 94 91 87 83 79 74 70
314 328 342 346 350 351 348 353 8 19 20 17 13 21 34 36 31 27 28 30 33 39 45 50 59 69 72 71 75 79 79 79 78 76 75 71 68 69 69 67 66 68 79 91 94 87 80 75 77 83 83 78 77 77 78 82 93 96 92 90 89 88 91 96 101 105 108 110 112 113 112 111 107 103 99 95 92 90 88 84 79 74 70 66 61
306 315 322 325 329 328 327 330 344 5 18 24 25 32 42 42 34 28 25 21 20 27 35 39 44 54 67 74 77 79 82 87 89 90 91 89 86 84 81 79 78 80 87 98 107 109 106 100 100 104 99 92 90 90 89 93 100 101 100 102 103 102 104 106 107 109 111 112 113 112 110 107 103 98 95 91 88 86 84 82 78 75 71 66 61
309 320 325 334 344 342 332 333 344 0 17 38 46 44 45 41 35 33 32 25 17 21 29 33 36 44 57 76 82 80 80 85 90 93 94 95 98 102 104 103 102 102 105 112 119 125 127 127 124 120 114 107 103 102 104 107 108 106 109 117 118 116 114 112 113 116 118 116 113 108 104 100 97 93 90 87 85 84 83 79 75 69 61 54 48
310 324 342 11 26 22 13 8 7 10 15 29 49 47 45 37 32 33 35 33 27 28 32 34 38 48 57 74 91 86 83 86 92 96 96 94 93 93 96 102 105 105 107 108 109 111 117 123 120 115 111 108 107 109 112 112 109 108 110 114 120 123 122 119 120 124 123 115 108 101 95 92 90 88 86 85 84 82 79 75 69 61 52 46 41
318 355 24 35 35 29 25 22 19 19 18 10 25 42 38 27 24 30 36 33 28 30 37 43 50 57 63 74 93 97 93 92 98 103 105 104 100 92 88 91 96 102 105 106 107 109 110 111 110 106 103 103 105 110 113 111 109 108 107 108 117 125 125 123 125 126 117 107 103 99 94 92 90 88 86 86 85 84 80 74 65 58 52 44 38